Amendola, Italy

1:09 PM CEST on September 25, 2016 (GMT +0200)
Amendola Mil

Weather History for LIBA - June, 2014

Change the Weather History Date:

Monday, June 23, 2014

  Actual Average Record
Temperature  
Mean Temperature 76 °F -  
Max Temperature 90 °F 88 °F 100 °F (2007)
Min Temperature 63 °F 64 °F 50 °F (1999)
Cooling Degree Days 11    
Growing Degree Days 26 (Base 50)    
Moisture  
Dew Point 64 °F    
Average Humidity 54    
Maximum Humidity 88    
Minimum Humidity 28    
Precipitation  
Precipitation 0.00 in - - ()
Sea Level Pressure  
Sea Level Pressure 30.08 in    
Wind  
Wind Speed 4 mph ()    
Max Wind Speed 12 mph    
Max Gust Speed -    
Visibility 8.0 miles    
Events      
Averages and records for this station are not official NWS values.
T = Trace of Precipitation, MM = Missing Value Source: Averaged Metar Reports

Daily Weather History Graph

Daily Weather History Graph

Search for Another Location

Airport or City:

Trip Planner

Search our weather history database for the weather conditions in past years. The results will help you decide how hot, cold, wet, or windy it might be!

Date:

Astronomy

Jun. 23, 2014 Rise Set
Actual Time 5:23 AM CEST 8:34 PM CEST
Civil Twilight 4:49 AM CEST 9:09 PM CEST
Nautical Twilight 4:05 AM CEST 9:52 PM CEST
Astronomical Twilight 3:13 AM CEST 10:45 PM CEST
Moon 2:40 AM CEST (6/23) 4:56 PM CEST (6/23)
Length of Visible Light 16h 19m
Length of Day
15h 11m
Waning Crescent, 15% of the Moon is Illuminated
Jun 23
Waning Crescent
Jun 27
New
Jul 5
First Quarter
Jul 12
Full
Jul 19
Last Quarter

Hourly Weather History & Observations

Time (CEST) Temp. Heat Index Dew Point Humidity Pressure Visibility Wind Dir Wind Speed Gust Speed Precip Events Conditions
6:55 AM 66.2 °F - 62.6 °F 88% 30.09 in - Calm Calm - N/A   Clear
7:55 AM 71.6 °F - 62.6 °F 73% 30.09 in - WNW 1.2 mph - N/A   Clear
8:00 AM 72 °F - 63 °F 67% 30.12 in 12 mi WNW 1.2 mph - -  
8:55 AM 78.8 °F - 62.6 °F 57% 30.09 in - West 1.2 mph - N/A   Clear
9:55 AM 84.2 °F 85.0 °F 62.6 °F 48% 30.09 in 6.2 mi WNW 4.6 mph - N/A   Partly Cloudy
10:55 AM 87.8 °F 87.1 °F 59.0 °F 38% 30.09 in 6.2 mi West 5.8 mph - N/A   Partly Cloudy
11:00 AM 88 °F - 60 °F 28% 30.11 in 12 mi West 5.8 mph - -   Scattered Clouds
11:55 AM 89.6 °F 90.1 °F 62.6 °F 40% 30.06 in 6.2 mi ESE 4.6 mph - N/A   Partly Cloudy
12:55 PM 86.0 °F 86.6 °F 62.6 °F 45% 30.09 in 6.2 mi ENE 9.2 mph - N/A   Partly Cloudy
1:55 PM 89.6 °F 90.1 °F 62.6 °F 40% 30.09 in 6.2 mi East 6.9 mph - N/A   Partly Cloudy
2:00 PM 89 °F - 63 °F 32% 30.09 in 12 mi East 6.9 mph - -   Scattered Clouds
2:55 PM 87.8 °F 88.5 °F 62.6 °F 43% 30.06 in 6.2 mi ENE 10.4 mph - N/A   Partly Cloudy
3:55 PM 86.0 °F 89.4 °F 68.0 °F 55% 30.06 in 6.2 mi East 11.5 mph - N/A   Partly Cloudy
4:55 PM 84.2 °F 85.6 °F 64.4 °F 51% 30.06 in 6.2 mi East 11.5 mph - N/A   Scattered Clouds
5:00 PM 85 °F - 65 °F 41% 30.08 in 12 mi East 11.5 mph - -   Partly Cloudy
5:55 PM 82.4 °F 83.4 °F 62.6 °F 51% 30.06 in 6.2 mi East 8.1 mph - N/A   Scattered Clouds
6:55 PM 80.6 °F 83.9 °F 69.8 °F 70% 30.06 in 6.2 mi East 8.1 mph - N/A   Scattered Clouds
7:55 PM 77.0 °F - 71.6 °F 83% 30.06 in 6.2 mi ENE 6.9 mph - N/A   Scattered Clouds
8:00 PM 78 °F - 71 °F 74% 30.06 in 12 mi ENE 6.9 mph - -   Partly Cloudy